Location: *
(47.6569°N, 7.4256°E)
Time: 20:27:12
(UTC+00:00)

Cosmos 1656 Rocket - Pass Details

Date: 14 December 2019
Orbit: 795 x 846 km, 71.1° (Epoch: 25 January)

Event Time Altitude Azimuth Distance (km) Brightness Sun altitude
Rises 17:59:04 0° 335° (NNW) 3,319 7.0 -22.5°
Reaches altitude 10° 18:01:34 10° 342° (NNW) 2,390 6.1 -23.0°
Enters shadow 18:05:53 43° 26° (NNE) 1,131 4.1 -23.7°
